Regional Weather Roundup
Issued by NWS

Home | Current Version | Previous Version | Text Only | Print | Product List | Glossary Off
Versions: 1 2 3 4 5 6 7 8 9 10 11 12 13 14 15 16 17 18 19 20 21 22 23 24 25 26 27 28 29 30 31 32 33 34 35 36 37 38 39 40 41 42 43 44 45 46 47 48 49 50

028
ASUS44 KMEG 280900
RWRTN
TENNESSEE HOURLY STATE WEATHER ROUNDUP
NATIONAL WEATHER SERVICE MEMPHIS TN
400 AM CDT WED JUN 28 2017

TNZ002-004-019-021-049-052-054-088>092-281000-
WEST TENNESSEE

CITY           SKY/WX    TMP DP  RH WIND       PRES   REMARKS
MEMPHIS INTL   CLEAR     73  63  70 SE9       30.04R
NWS MEMPHIS      N/A     68 N/A N/A MISG        N/A
JACKSON        CLEAR     62  61  96 CALM      30.06S
$$

TNZ008-025-027-028-033-062-065-066-281000-
NORTH MIDDLE TENNESSEE

CITY           SKY/WX    TMP DP  RH WIND       PRES   REMARKS
NASHVILLE      CLEAR     61  58  90 CALM      30.11S
CLARKSVILLE    CLEAR     57  54  89 CALM      30.09S
SMYRNA         CLEAR     57  57 100 CALM      30.11F
CROSSVILLE     CLEAR     52  50  93 CALM      30.16S
$$

TNZ061-075-076-078-094-096-097-281000-
SOUTH MIDDLE TENNESSEE

CITY           SKY/WX    TMP DP  RH WIND       PRES   REMARKS
$$

TNZ017-018-042-046-047-281000-
NORTHEAST TENNESSEE

CITY           SKY/WX    TMP DP  RH WIND       PRES   REMARKS
TRI CITIES     CLEAR     50  49  96 CALM      30.19R
$$

TNZ012-013-036-069-073-074-281000-
CENTRAL EAST TENNESSEE

CITY           SKY/WX    TMP DP  RH WIND       PRES   REMARKS
KNOXVILLE      NOT AVBL
OAK RIDGE      CLEAR     56  53  90 CALM      30.15S
GATLINBURG     CLEAR     52  48  87 CALM      30.14S
$$

TNZ083-085-099-281000-
SOUTHEAST TENNESSEE

CITY           SKY/WX    TMP DP  RH WIND       PRES   REMARKS
CHATTANOOGA    PTCLDY    60  57  89 CALM      30.13R
$$

SKY/WX REPORTED AS FAIR MEANS FEW OR NO CLOUDS BELOW
12 THOUSAND FEET.





USA.gov is the U.S. government's official web portal to all federal, state and local government web resources and services.